Regional Weather Roundup
Issued by NWS

Home | Current Version | Previous Version | Text Only | Print | Product List | Glossary On
Versions: 1 2 3 4 5 6 7 8 9 10 11 12 13 14 15 16 17 18 19 20 21 22 23 24 25 26 27 28 29 30 31 32 33 34 35 36 37 38 39 40 41 42 43 44 45 46 47 48 49 50
000
ASUS45 KREV 300210
RWRNV
NEVADA REGIONAL WEATHER ROUNDUP
NATIONAL WEATHER SERVICE RENO NV
700 PM PDT FRI MAY 29 2015

NOTE: "FAIR" INDICATES FEW OR NO CLOUDS BELOW 12,000 FEET WITH NO
SIGNIFICANT WEATHER AND/OR OBSTRUCTIONS TO VISIBILITY.

NVZ001-003-004-300300-
WESTERN NEVADA

CITY           SKY/WX    TMP DP  RH WIND       PRES   REMARKS
RENO           CLOUDY    81  31  16 NW15      29.98R
CARSON CITY    FAIR      79  36  21 W8        30.02R
MINDEN         FAIR      75  39  27 W14G20    30.02
SLIDE MTN        N/A     54  34  47 W21         N/A
PYRAMID LAKE     N/A     84 N/A N/A S5          N/A
FALLON         PTSUNNY   85  32  15 NE8       29.93S
LOVELOCK       PTSUNNY   84  31  14 NE6       29.95F
HAWTHORNE      SUNNY     86  32  14 NW8       29.94S
$$

NVZ002-CAZ072-073-300300-
NORTHERN AND CENTRAL SIERRA

CITY           SKY/WX    TMP DP  RH WIND       PRES   REMARKS
S. LAKE TAHOE  CLOUDY    70  43  37 S7        30.15R
TRUCKEE        PTSUNNY   70  32  24 SW9       30.13S
SQUAW VLY 8000   N/A     57  32  38 S9          N/A
SUSANVILLE     SUNNY     81  32  17 SW13G21   30.00S
BLUE CANYON    MOSUNNY   69  37  30 S5        30.12F
MAMMOTH LAKES  FAIR      72  28  20 SW13G25   30.17S
BRIDGEPORT     FAIR      71  33  24 SW8G17    30.14R
$$

NVZ030-031-036-300300-
NORTHERN NEVADA

CITY           SKY/WX    TMP DP  RH WIND       PRES   REMARKS
ELKO           SUNNY     76  35  22 NW3       30.07S
WINNEMUCCA     PTSUNNY   78  45  30 W3        29.99F
WENDOVER       CLEAR     73  45  35 E6        30.09F
$$

NVZ035-037-300300-
CENTRAL NEVADA

CITY           SKY/WX    TMP DP  RH WIND       PRES   REMARKS
ELY            PTCLDY    69  42  37 S6        30.15S
EUREKA           N/A     76  33  21 E6        30.09S
$$

NVZ013-014-300300-
SOUTH CENTRAL NEVADA

CITY           SKY/WX    TMP DP  RH WIND       PRES   REMARKS
TONOPAH        MOSUNNY   81  23  11 S10       30.05R
$$

NVZ017-020-022-300300-
SOUTHERN NEVADA

CITY           SKY/WX    TMP DP  RH WIND       PRES   REMARKS
LAS VEGAS      PTCLDY    97  23   7 SE7       29.81R
N. LAS VEGAS   CLEAR     96  20   6 SE6       29.83S
NELLIS AFB     CLEAR     97  27   8 VRB3      29.81S
HENDERSON      CLEAR     95  29   9 SE8       29.88S
MERCURY        CLEAR     92  20   7 SW16      29.91R
$$


USA.gov is the U.S. government's official web portal to all federal, state and local government web resources and services.